Tracking 30102 objects as of 12-Dec-2024
HD Live streaming from Space Station
objects crossing your sky now

CZ-3B DEB

Track CZ-3B DEB now!


NORAD ID: 52965
Int'l Code: 2018-079GQ
Perigee: 915.7 km
Apogee: 42,857.9 km
Inclination: 25.0 °
Period: 787.9 minutes
Semi major axis: 28257 km
RCS: Unknown
Launch date: October 17, 2018
Source: People's Republic of China (PRC)
Launch site: AIR FORCE EASTERN TEST RANGE (AFETR)

Note: This is SATELLITE DEBRIS
Your satellite tracking list
Your tracking list is empty




NASA's NSSDC Master Catalog

Two Line Element Set (TLE):
1 52965U 10042AJ  24345.00689134 -.00000758  00000-0 -41897-1 0  9995
2 52965  25.0239   8.3409 7421355 251.5040  20.7643  1.82766068 18159
Source of the keplerian elements: AFSPC